TimeMDT,TemperatureF,Dew PointF,Humidity,Sea Level PressureIn,VisibilityMPH,Wind Direction,Wind SpeedMPH,Gust SpeedMPH,PrecipitationIn,Events,Conditions,WindDirDegrees,DateUTC
12:00 AM,29,28,92,30.07,5,NW,8.1,,,,Mist,310,2012-11-02 06:00:00
12:00 AM,28.4,28.4,100,30.07,5.0,NW,8.1,-,N/A,,Overcast,310,2012-11-02 06:00:00
1:00 AM,28.4,26.6,93,30.08,5.0,WNW,6.9,-,N/A,,Mostly Cloudy,300,2012-11-02 07:00:00
1:23 AM,28.4,26.6,93,30.09,5.0,West,8.1,-,N/A,,Mostly Cloudy,280,2012-11-02 07:23:00
2:00 AM,28.4,26.6,93,30.10,5.0,WNW,9.2,-,N/A,,Mostly Cloudy,290,2012-11-02 08:00:00
3:00 AM,28.4,26.6,93,30.11,6.0,WNW,9.2,-,N/A,,Mostly Cloudy,290,2012-11-02 09:00:00
3:49 AM,28.4,26.6,93,30.12,6.0,West,6.9,-,N/A,,Mostly Cloudy,280,2012-11-02 09:49:00
4:00 AM,28.4,26.6,93,30.13,6.0,WNW,8.1,-,N/A,,Mostly Cloudy,290,2012-11-02 10:00:00
4:42 AM,28.4,26.6,93,30.13,6.0,West,8.1,-,N/A,,Mostly Cloudy,280,2012-11-02 10:42:00
5:00 AM,28.4,26.6,93,30.14,6.0,West,8.1,-,N/A,,Mostly Cloudy,280,2012-11-02 11:00:00
5:48 AM,28.4,26.6,93,30.15,6.0,West,6.9,-,N/A,,Mostly Cloudy,280,2012-11-02 11:48:00
6:00 AM,28,26,91,30.16,6,West,6.9,,,,Mist,270,2012-11-02 12:00:00
6:00 AM,28.4,26.6,93,30.16,6.0,West,6.9,-,N/A,,Mostly Cloudy,270,2012-11-02 12:00:00
6:15 AM,28.4,26.6,93,30.16,6.0,West,6.9,-,N/A,,Overcast,260,2012-11-02 12:15:00
7:00 AM,28.4,26.6,93,30.17,6.0,WNW,4.6,-,N/A,,Overcast,290,2012-11-02 13:00:00
8:00 AM,28.4,26.6,93,30.18,5.0,WNW,6.9,-,N/A,,Overcast,300,2012-11-02 14:00:00
9:00 AM,28.4,26.6,93,30.20,4.0,NW,4.6,-,N/A,,Overcast,320,2012-11-02 15:00:00
10:00 AM,30.2,26.6,86,30.22,6.0,WNW,3.5,-,N/A,,Overcast,290,2012-11-02 16:00:00
10:33 AM,30.2,26.6,86,30.22,5.0,West,4.6,-,N/A,,Overcast,280,2012-11-02 16:33:00
11:00 AM,30.2,26.6,86,30.22,5.0,WNW,3.5,-,N/A,,Overcast,290,2012-11-02 17:00:00
12:00 PM,30,27,85,30.23,5,WNW,4.6,,,,Mist,300,2012-11-02 18:00:00
12:00 PM,30.2,26.6,86,30.23,5.0,WNW,4.6,-,N/A,,Overcast,300,2012-11-02 18:00:00
1:00 PM,32.0,28.4,87,30.24,5.0,WNW,4.6,-,N/A,,Overcast,290,2012-11-02 19:00:00
2:00 PM,32.0,28.4,87,30.23,5.0,WSW,2.3,-,N/A,,Overcast,240,2012-11-02 20:00:00
3:00 PM,32.0,28.4,87,30.23,5.0,Calm,Calm,-,N/A,,Overcast,0,2012-11-02 21:00:00
4:00 PM,32.0,28.4,87,30.22,5.0,SW,3.5,-,N/A,,Overcast,220,2012-11-02 22:00:00
5:00 PM,30.2,28.4,93,30.23,5.0,SSW,4.6,-,N/A,,Overcast,200,2012-11-02 23:00:00
6:00 PM,31,29,87,30.23,5,South,9.2,,,,Mist,190,2012-11-03 00:00:00
6:00 PM,30.2,28.4,93,30.23,5.0,South,8.1,-,N/A,,Overcast,190,2012-11-03 00:00:00
6:48 PM,30.2,28.4,93,30.22,3.0,South,12.7,-,N/A,,Overcast,170,2012-11-03 00:48:00
7:00 PM,30.2,30.2,100,30.22,3.0,South,11.5,-,N/A,,Overcast,180,2012-11-03 01:00:00
8:00 PM,30.2,30.2,100,30.22,3.0,SSW,11.5,18.4,N/A,,Overcast,200,2012-11-03 02:00:00
8:34 PM,30.2,30.2,100,30.21,2.0,South,11.5,-,N/A,,Overcast,190,2012-11-03 02:34:00
8:42 PM,30.2,30.2,100,30.21,1.8,SSW,11.5,-,N/A,,Overcast,200,2012-11-03 02:42:00
8:53 PM,30.2,30.2,100,30.20,0.5,South,10.4,-,N/A,Fog,Light Freezing Fog,180,2012-11-03 02:53:00
9:00 PM,30.2,30.2,100,30.20,0.5,South,11.5,-,N/A,Fog,Light Freezing Fog,180,2012-11-03 03:00:00
9:20 PM,30.2,30.2,100,30.20,1.2,SSW,12.7,-,N/A,,Mist,200,2012-11-03 03:20:00
9:35 PM,30.2,30.2,100,30.20,0.5,South,10.4,-,N/A,Fog,Light Freezing Fog,190,2012-11-03 03:35:00
9:49 PM,30.2,30.2,100,30.19,0.2,South,10.4,-,N/A,Fog,Light Freezing Fog,180,2012-11-03 03:49:00
10:00 PM,30.2,30.2,100,30.19,0.2,South,12.7,19.6,N/A,Fog,Light Freezing Fog,190,2012-11-03 04:00:00
11:00 PM,30.2,30.2,100,30.19,0.5,SSW,12.7,19.6,N/A,Fog,Light Freezing Fog,200,2012-11-03 05:00:00
11:46 PM,30.2,30.2,100,30.18,1.0,South,12.7,-,N/A,,Mist,180,2012-11-03 05:46:00